TUI1128 EDDM-EHAM

Flight info

Callsign TUI1128
Flight time 1h 3m
Altitude 36000
Route GIVMI6Q/08L GIVMI Y101 IBAGA DCT MASEK DCT MAPOX DCT NORKU
Aircraft B78X/H-SDE1E2E3FGHIJ2J3J4J5M1RWXY/LB1D1

Departure

Time 2026-05-01 12:46
Airport Munich Airport (EDDM)

Arrival

Time 2026-05-01 13:50
Airport Amsterdam Airport Schiphol (EHAM)
Time Latitude Longitude Altitude Speed Heading
2026-05-01 11:52 48.35305 11.79340 1473 ft 0 kts 263°
2026-05-01 12:28 48.35306 11.79354 1473 ft 4 kts 261°
2026-05-01 12:28 48.35315 11.79432 1463 ft 5 kts 277°
2026-05-01 12:29 48.35310 11.79460 1461 ft 5 kts 305°
2026-05-01 12:29 48.35298 11.79481 1461 ft 5 kts 347°
2026-05-01 12:29 48.35266 11.79487 1461 ft 6 kts 353°
2026-05-01 12:33 48.35270 11.79486 1461 ft 1 kts 353°
2026-05-01 12:33 48.35285 11.79484 1461 ft 3 kts 353°
2026-05-01 12:34 48.35311 11.79479 1461 ft 5 kts 353°
2026-05-01 12:34 48.35350 11.79472 1463 ft 6 kts 353°
2026-05-01 12:34 48.35400 11.79464 1466 ft 8 kts 353°
2026-05-01 12:34 48.35461 11.79453 1462 ft 10 kts 353°
2026-05-01 12:35 48.35531 11.79441 1465 ft 11 kts 353°
2026-05-01 12:35 48.35572 11.79434 1464 ft 0 kts 353°
2026-05-01 12:36 48.35579 11.79433 1463 ft 2 kts 353°
2026-05-01 12:37 48.35604 11.79429 1468 ft 6 kts 353°
2026-05-01 12:37 48.35666 11.79419 1469 ft 12 kts 353°
2026-05-01 12:37 48.35749 11.79405 1469 ft 12 kts 353°
2026-05-01 12:37 48.35831 11.79391 1466 ft 5 kts 353°
2026-05-01 12:38 48.35861 11.79386 1465 ft 0 kts 353°
2026-05-01 12:38 48.35862 11.79386 1467 ft 1 kts 353°
2026-05-01 12:38 48.35873 11.79383 1469 ft 2 kts 348°
2026-05-01 12:38 48.35891 11.79368 1463 ft 4 kts 334°
2026-05-01 12:39 48.35931 11.79351 1464 ft 8 kts 348°
2026-05-01 12:39 48.35984 11.79339 1469 ft 0 kts 353°
2026-05-01 12:40 48.36033 11.79329 1466 ft 13 kts 353°
2026-05-01 12:40 48.36087 11.79252 1467 ft 12 kts 276°
2026-05-01 12:41 48.36077 11.79073 1463 ft 22 kts 262°
2026-05-01 12:41 48.36055 11.78829 1468 ft 24 kts 262°
2026-05-01 12:41 48.36034 11.78577 1461 ft 25 kts 263°
2026-05-01 12:41 48.36013 11.78311 1473 ft 26 kts 264°
2026-05-01 12:42 48.35993 11.78038 1464 ft 27 kts 263°
2026-05-01 12:42 48.35970 11.77763 1473 ft 25 kts 263°
2026-05-01 12:42 48.35952 11.77496 1465 ft 26 kts 264°
2026-05-01 12:42 48.35932 11.77228 1463 ft 25 kts 263°
2026-05-01 12:43 48.35912 11.76973 1472 ft 24 kts 267°
2026-05-01 12:43 48.36017 11.76818 1466 ft 23 kts 349°
2026-05-01 12:43 48.36098 11.76800 1467 ft 0 kts 352°
2026-05-01 12:44 48.36102 11.76800 1467 ft 3 kts 352°
2026-05-01 12:44 48.36146 11.76792 1470 ft 10 kts 354°
2026-05-01 12:44 48.36292 11.76962 1465 ft 0 kts 83°
2026-05-01 12:46 48.36296 11.77016 1470 ft 30 kts 83°
2026-05-01 12:46 48.36357 11.77835 1466 ft 126 kts 83°
2026-05-01 12:46 48.36487 11.79491 1759 ft 181 kts 83°
2026-05-01 12:46 48.36654 11.81605 2224 ft 232 kts 84°
2026-05-01 12:47 48.36833 11.84018 3673 ft 235 kts 84°
2026-05-01 12:47 48.37380 11.86372 4977 ft 249 kts 58°
2026-05-01 12:47 48.38792 11.87968 6215 ft 268 kts 21°
2026-05-01 12:47 48.40696 11.88064 7198 ft 287 kts 349°
2026-05-01 12:48 48.42454 11.86659 7391 ft 293 kts 317°
2026-05-01 12:48 48.43667 11.84197 7382 ft 291 kts 302°
2026-05-01 12:48 48.44711 11.81558 7389 ft 292 kts 303°
2026-05-01 12:48 48.45925 11.79126 7643 ft 292 kts 313°
2026-05-01 12:49 48.47308 11.76847 8350 ft 299 kts 315°
2026-05-01 12:49 48.48670 11.74547 9381 ft 297 kts 313°
2026-05-01 12:49 48.50005 11.72163 10702 ft 298 kts 313°
2026-05-01 12:49 48.51349 11.69762 11935 ft 302 kts 313°
2026-05-01 12:50 48.52724 11.67345 13104 ft 306 kts 314°
2026-05-01 12:50 48.54126 11.64885 14287 ft 311 kts 314°
2026-05-01 12:50 48.55542 11.62381 15319 ft 316 kts 314°
2026-05-01 12:50 48.56982 11.59828 16335 ft 322 kts 314°
2026-05-01 12:51 48.58470 11.57196 17134 ft 335 kts 313°
2026-05-01 12:51 48.60027 11.54440 17711 ft 356 kts 313°
2026-05-01 12:51 48.63450 11.48356 18748 ft 394 kts 313°
2026-05-01 12:52 48.65224 11.45195 19420 ft 403 kts 313°
2026-05-01 12:52 48.68941 11.38578 20821 ft 420 kts 313°
2026-05-01 12:52 48.71068 11.35549 21527 ft 421 kts 327°
2026-05-01 12:53 48.75966 11.30541 23022 ft 428 kts 329°
2026-05-01 12:53 48.78458 11.28050 23787 ft 431 kts 329°
2026-05-01 12:53 48.80950 11.25521 24464 ft 434 kts 328°
2026-05-01 12:54 48.83470 11.22981 25119 ft 434 kts 332°
2026-05-01 12:54 48.89025 11.19615 26511 ft 430 kts 343°
2026-05-01 12:54 48.91872 11.18174 27212 ft 430 kts 343°
2026-05-01 12:55 48.97551 11.15304 28692 ft 429 kts 343°
2026-05-01 12:55 49.00373 11.13863 29455 ft 427 kts 343°
2026-05-01 12:55 49.03155 11.12445 30229 ft 425 kts 343°
2026-05-01 12:56 49.05950 11.11021 30927 ft 423 kts 343°
2026-05-01 12:56 49.08733 11.09601 31592 ft 421 kts 343°
2026-05-01 12:56 49.11506 11.08183 32297 ft 418 kts 343°
2026-05-01 12:56 49.14252 11.06781 33006 ft 415 kts 343°
2026-05-01 12:57 49.16981 11.05391 33747 ft 411 kts 343°
2026-05-01 12:57 49.22362 11.02632 35122 ft 402 kts 343°
2026-05-01 12:57 49.24997 11.01271 35787 ft 397 kts 343°
2026-05-01 12:58 49.27618 10.99920 36263 ft 398 kts 343°
2026-05-01 12:58 49.30263 10.98559 36356 ft 407 kts 343°
2026-05-01 12:58 49.32959 10.97169 36362 ft 419 kts 343°
2026-05-01 12:59 49.38598 10.94024 36406 ft 443 kts 334°
2026-05-01 12:59 49.41250 10.91495 36400 ft 455 kts 327°
2026-05-01 12:59 49.46494 10.85918 36383 ft 458 kts 327°
2026-05-01 13:00 49.54318 10.77539 36372 ft 459 kts 327°
2026-05-01 13:01 49.62184 10.69126 36369 ft 459 kts 327°
2026-05-01 13:02 49.70049 10.60679 36371 ft 459 kts 326°
2026-05-01 13:07 50.29472 10.02825 36359 ft 458 kts 329°
2026-05-01 13:08 50.34874 9.97530 36356 ft 458 kts 329°
2026-05-01 13:08 50.40268 9.92230 36350 ft 457 kts 328°
2026-05-01 13:09 50.45635 9.86941 36351 ft 458 kts 328°
2026-05-01 13:09 50.51033 9.81609 36346 ft 458 kts 328°
2026-05-01 13:10 50.55551 9.77132 36344 ft 458 kts 328°
2026-05-01 13:10 50.60944 9.71778 36344 ft 458 kts 328°
2026-05-01 13:11 50.66306 9.66439 36343 ft 459 kts 328°
2026-05-01 13:11 50.71679 9.61005 36349 ft 459 kts 323°
2026-05-01 13:11 50.74037 9.57629 36360 ft 460 kts 311°
2026-05-01 13:12 50.76105 9.53749 36353 ft 461 kts 310°
2026-05-01 13:12 50.80172 9.45948 36357 ft 459 kts 310°
2026-05-01 13:13 50.84230 9.38134 36347 ft 459 kts 310°
2026-05-01 13:13 50.88292 9.30303 36348 ft 460 kts 310°
2026-05-01 13:14 50.92346 9.22452 36351 ft 460 kts 310°
2026-05-01 13:14 50.96365 9.14652 36354 ft 459 kts 310°
2026-05-01 13:15 51.00404 9.06788 36350 ft 459 kts 309°
2026-05-01 13:15 51.04432 8.98921 36351 ft 459 kts 309°
2026-05-01 13:16 51.08453 8.91044 36350 ft 459 kts 309°
2026-05-01 13:16 51.12480 8.83128 36345 ft 460 kts 309°
2026-05-01 13:17 51.21295 8.68373 36336 ft 459 kts 314°
2026-05-01 13:18 51.27941 8.57413 36337 ft 459 kts 314°
2026-05-01 13:18 51.32372 8.50079 36333 ft 458 kts 314°
2026-05-01 13:19 51.36802 8.42724 36334 ft 459 kts 314°
2026-05-01 13:20 51.43443 8.31659 36334 ft 459 kts 314°
2026-05-01 13:20 51.47867 8.24260 36329 ft 460 kts 314°
2026-05-01 13:21 51.54476 8.13165 36325 ft 459 kts 314°
2026-05-01 13:21 51.58886 8.05733 36307 ft 459 kts 314°
2026-05-01 13:22 51.63290 7.98290 36309 ft 459 kts 314°
2026-05-01 13:22 51.67689 7.90832 36306 ft 459 kts 313°
2026-05-01 13:23 51.72088 7.83352 36304 ft 459 kts 313°
2026-05-01 13:23 51.76481 7.75860 36302 ft 459 kts 313°
2026-05-01 13:24 51.80845 7.68395 36304 ft 460 kts 313°
2026-05-01 13:25 51.87430 7.57087 36314 ft 459 kts 313°
2026-05-01 13:25 51.91747 7.49646 35848 ft 448 kts 313°
2026-05-01 13:25 51.93878 7.45963 35267 ft 448 kts 313°
2026-05-01 13:26 51.96001 7.42290 34731 ft 447 kts 313°
2026-05-01 13:26 51.98122 7.38614 34157 ft 446 kts 313°
2026-05-01 13:26 52.00234 7.34950 33604 ft 443 kts 313°
2026-05-01 13:26 52.02332 7.31304 33075 ft 440 kts 313°
2026-05-01 13:27 52.04390 7.27721 32553 ft 437 kts 314°
2026-05-01 13:27 52.06458 7.24118 32035 ft 434 kts 314°
2026-05-01 13:27 52.10556 7.16958 31009 ft 429 kts 314°
2026-05-01 13:28 52.14601 7.09874 29944 ft 424 kts 314°
2026-05-01 13:28 52.16603 7.06361 29441 ft 420 kts 314°
2026-05-01 13:29 52.20537 6.99437 28463 ft 412 kts 314°
2026-05-01 13:29 52.24152 6.92410 27748 ft 399 kts 311°
2026-05-01 13:30 52.31076 6.78594 25948 ft 388 kts 310°
2026-05-01 13:31 52.34464 6.71805 25071 ft 387 kts 310°
2026-05-01 13:31 52.39573 6.61497 23239 ft 392 kts 309°
2026-05-01 13:32 52.43004 6.54557 21940 ft 392 kts 309°
2026-05-01 13:33 52.47019 6.43189 20121 ft 384 kts 275°
2026-05-01 13:33 52.47497 6.34529 18947 ft 380 kts 272°
2026-05-01 13:34 52.47904 6.25925 17700 ft 376 kts 272°
2026-05-01 13:34 52.48331 6.17408 16424 ft 373 kts 272°
2026-05-01 13:35 52.48734 6.08990 15202 ft 367 kts 272°
2026-05-01 13:35 52.48933 6.04826 14610 ft 365 kts 272°
2026-05-01 13:35 52.49324 5.96576 13352 ft 359 kts 272°
2026-05-01 13:36 52.49513 5.92563 12709 ft 356 kts 271°
2026-05-01 13:36 52.49700 5.88532 12093 ft 353 kts 271°
2026-05-01 13:36 52.50055 5.80912 10830 ft 314 kts 271°
2026-05-01 13:37 52.50213 5.77447 10195 ft 297 kts 270°
2026-05-01 13:37 52.50362 5.74096 9537 ft 294 kts 270°
2026-05-01 13:37 52.50509 5.70724 8905 ft 298 kts 270°
2026-05-01 13:37 52.50662 5.67312 8275 ft 301 kts 270°
2026-05-01 13:38 52.50969 5.60410 7074 ft 303 kts 270°
2026-05-01 13:38 52.51129 5.57058 6437 ft 286 kts 271°
2026-05-01 13:38 52.51351 5.53869 5822 ft 282 kts 272°
2026-05-01 13:39 52.51598 5.50638 5190 ft 287 kts 272°
2026-05-01 13:39 52.51846 5.47380 4582 ft 289 kts 272°
2026-05-01 13:39 52.52086 5.44130 4252 ft 280 kts 272°
2026-05-01 13:39 52.52311 5.41011 4237 ft 274 kts 272°
2026-05-01 13:40 52.52538 5.37917 4243 ft 274 kts 272°
2026-05-01 13:40 52.52733 5.34861 4242 ft 272 kts 269°
2026-05-01 13:40 52.52804 5.31773 4125 ft 269 kts 267°
2026-05-01 13:40 52.52838 5.28709 4014 ft 267 kts 266°
2026-05-01 13:41 52.52859 5.25627 3461 ft 269 kts 266°
2026-05-01 13:41 52.52871 5.22524 2889 ft 269 kts 266°
2026-05-01 13:41 52.52879 5.19463 2325 ft 264 kts 267°
2026-05-01 13:41 52.52876 5.16438 2011 ft 263 kts 266°
2026-05-01 13:42 52.52877 5.13430 2015 ft 264 kts 266°
2026-05-01 13:42 52.52870 5.10442 2020 ft 270 kts 267°
2026-05-01 13:42 52.52871 5.07389 2011 ft 265 kts 267°
2026-05-01 13:42 52.52895 5.04396 2010 ft 259 kts 268°
2026-05-01 13:43 52.52912 5.01468 2014 ft 265 kts 268°
2026-05-01 13:43 52.52926 4.98611 2002 ft 264 kts 267°
2026-05-01 13:43 52.52947 4.95606 1999 ft 261 kts 267°
2026-05-01 13:43 52.52968 4.92562 2051 ft 261 kts 267°
2026-05-01 13:44 52.52996 4.89575 2009 ft 260 kts 268°
2026-05-01 13:44 52.53013 4.86571 2001 ft 262 kts 267°
2026-05-01 13:44 52.53030 4.83552 2000 ft 260 kts 267°
2026-05-01 13:44 52.53046 4.80577 2001 ft 264 kts 268°
2026-05-01 13:45 52.52948 4.77594 1997 ft 261 kts 256°
2026-05-01 13:45 52.52119 4.75196 1982 ft 249 kts 223°
2026-05-01 13:45 52.50862 4.73499 1997 ft 229 kts 213°
2026-05-01 13:45 52.49562 4.72261 1980 ft 214 kts 193°
2026-05-01 13:46 52.48152 4.72282 1959 ft 196 kts 175°
2026-05-01 13:46 52.46872 4.72154 1994 ft 175 kts 182°
2026-05-01 13:46 52.45648 4.72051 1891 ft 179 kts 181°
2026-05-01 13:46 52.44488 4.71956 1695 ft 175 kts 180°
2026-05-01 13:47 52.43283 4.71839 1441 ft 169 kts 182°
2026-05-01 13:47 52.42148 4.71724 1217 ft 159 kts 181°
2026-05-01 13:47 52.41101 4.71636 1011 ft 142 kts 182°
2026-05-01 13:47 52.40150 4.71551 821 ft 136 kts 181°
2026-05-01 13:48 52.39237 4.71460 664 ft 135 kts 181°
2026-05-01 13:48 52.38313 4.71395 506 ft 130 kts 179°
2026-05-01 13:48 52.37436 4.71330 322 ft 138 kts 180°
2026-05-01 13:48 52.36648 4.71254 145 ft 133 kts 181°
2026-05-01 13:49 52.35824 4.71176 4 ft 116 kts 189°
2026-05-01 13:49 52.35178 4.71098 4 ft 73 kts 182°
2026-05-01 13:49 52.34755 4.71067 5 ft 54 kts 183°
2026-05-01 13:49 52.34394 4.71036 2 ft 51 kts 183°
2026-05-01 13:50 52.34049 4.71009 3 ft 48 kts 182°
2026-05-01 13:50 52.33726 4.70983 6 ft 45 kts 183°
2026-05-01 13:50 52.33431 4.70965 4 ft 37 kts 170°
2026-05-01 13:50 52.33262 4.71187 5 ft 34 kts 131°
2026-05-01 13:51 52.33109 4.71468 5 ft 32 kts 131°
2026-05-01 13:51 52.32963 4.71736 5 ft 31 kts 131°
2026-05-01 13:51 52.32847 4.71995 5 ft 26 kts 105°
2026-05-01 13:51 52.32807 4.72273 5 ft 25 kts 122°
2026-05-01 13:52 52.32696 4.72485 5 ft 24 kts 132°
2026-05-01 13:52 52.32575 4.72670 5 ft 24 kts 139°
2026-05-01 13:52 52.32450 4.72845 5 ft 23 kts 139°
2026-05-01 13:52 52.32328 4.73017 5 ft 23 kts 139°
2026-05-01 13:53 52.32206 4.73189 5 ft 23 kts 139°
2026-05-01 13:53 52.32054 4.73599 5 ft 21 kts 95°
2026-05-01 13:53 52.32041 4.73829 5 ft 21 kts 95°
2026-05-01 13:54 52.32032 4.74076 5 ft 21 kts 102°
2026-05-01 13:54 52.31929 4.74184 5 ft 18 kts 180°
2026-05-01 13:54 52.31802 4.74176 5 ft 19 kts 182°
2026-05-01 13:54 52.31666 4.74166 5 ft 20 kts 183°
2026-05-01 13:55 52.31526 4.74154 5 ft 21 kts 182°
2026-05-01 13:55 52.31380 4.74140 5 ft 21 kts 184°
2026-05-01 13:55 52.31228 4.74123 5 ft 22 kts 184°
2026-05-01 13:55 52.31126 4.74112 5 ft 23 kts 184°
2026-05-01 13:56 52.30966 4.74095 5 ft 23 kts 184°
2026-05-01 13:56 52.30808 4.74086 5 ft 24 kts 182°
2026-05-01 13:56 52.30582 4.74074 5 ft 24 kts 182°
2026-05-01 13:56 52.30412 4.74056 5 ft 25 kts 185°
2026-05-01 13:57 52.30281 4.74163 5 ft 23 kts 133°
2026-05-01 13:57 52.30210 4.74289 12 ft 20 kts 132°
2026-05-01 13:57 52.30121 4.74436 15 ft 18 kts 134°
2026-05-01 13:57 52.30029 4.74586 15 ft 19 kts 135°
2026-05-01 13:58 52.29962 4.74737 8 ft 16 kts 96°
2026-05-01 13:58 52.29960 4.74929 5 ft 19 kts 103°
2026-05-01 13:58 52.29888 4.75109 5 ft 19 kts 130°
2026-05-01 13:58 52.29802 4.75273 5 ft 19 kts 127°
2026-05-01 13:59 52.29797 4.75465 5 ft 18 kts 67°
2026-05-01 13:59 52.29858 4.75643 5 ft 19 kts 59°
2026-05-01 13:59 52.29928 4.75830 5 ft 20 kts 58°
2026-05-01 13:59 52.30007 4.76029 5 ft 22 kts 57°
2026-05-01 14:00 52.30091 4.76239 5 ft 23 kts 57°
2026-05-01 14:00 52.30172 4.76445 5 ft 24 kts 59°
2026-05-01 14:00 52.30257 4.76680 5 ft 25 kts 59°
2026-05-01 14:00 52.30347 4.76912 5 ft 19 kts 57°
2026-05-01 14:01 52.30422 4.77020 5 ft 14 kts
2026-05-01 14:01 52.30512 4.76964 5 ft 15 kts 330°
2026-05-01 14:01 52.30596 4.76849 5 ft 17 kts 306°
2026-05-01 14:01 52.30672 4.76734 5 ft 14 kts 325°
2026-05-01 14:02 52.30735 4.76663 5 ft 9 kts 321°
2026-05-01 14:02 52.30748 4.76653 5 ft 2 kts 337°
2026-05-01 14:02 52.30769 4.76645 5 ft 4 kts 345°
2026-05-01 14:02 52.30788 4.76637 5 ft 1 kts 345°
2026-05-01 14:03 52.30799 4.76632 5 ft 0 kts 345°